Regional Weather Roundup
Issued by NWS Upton, NY

Current Version | Previous Version | Text Only | Print | Product List | Glossary On
Versions: 1 2 3 4 5 6 7 8 9 10 11 12 13 14 15 16 17 18 19 20 21 22 23 24 25 26 27 28 29 30 31 32 33 34 35 36 37 38 39 40 41 42 43 44 45 46 47 48 49 50
000
ASUS41 KOKX 252007
RWROKX

REGIONAL WEATHER ROUNDUP
NATIONAL WEATHER SERVICE NEW YORK NY
400 PM EDT SAT APR 25 2015

NOTE: "FAIR" INDICATES FEW OR NO CLOUDS BELOW 12,000 FEET WITH NO
SIGNIFICANT WEATHER AND/OR OBSTRUCTIONS TO VISIBILITY.

NYZ071-072-176-178-NJZ106-104-252100-
NEW YORK CITY METRO AREA


CITY           SKY/WX    TMP DP  RH WIND       PRES   REMARKS
CENTRAL PARK   SUNNY     60  22  23 MISG      29.74F
LAGUARDIA APRT MOSUNNY   58  22  24 W10       29.72F
KENNEDY INTL   MOSUNNY   58  25  28 SW15      29.74F
NEWARK/LIBERTY PTSUNNY   61  21  21 W17       29.72F
BRNX BOT. GARD   N/A     57  25  28 W10       29.71F
TETERBORO      SUNNY     59  25  27 NW3       29.71F
$$

NYZ177-179-078>081-252100-
LONG ISLAND NEW YORK

CITY           SKY/WX    TMP DP  RH WIND       PRES   REMARKS
FARMINGDALE    SUNNY     58  25  28 VRB6      29.73F
ISLIP          MOSUNNY   57  25  29 W12       29.71F
SHIRLEY        SUNNY     57  24  28 NW16G22   29.72F
WESTHAMPTON    SUNNY     54  32  43 SW13G20   29.73F
MONTAUK POINT    N/A     53  32  44 SW10      29.72F
$$

NYZ052-065-067-252100-
HUDSON VALLEY

CITY           SKY/WX    TMP DP  RH WIND       PRES   REMARKS
WHITE PLAINS   MOSUNNY   56  25  30 NW10G18   29.71F
NEWBURGH       MOSUNNY   57  28  33 NW8       29.72F
MONTGOMERY     SUNNY     59  28  30 N15       29.70F
POUGHKEEPSIE   SUNNY     58  26  29 N7        29.70F
ALBANY         PTSUNNY   57  27  31 NW10G23   29.72F
$$

NJZ001-105-106-008-010-013-015-019>022-104-252100-
NEW JERSEY

CITY           SKY/WX    TMP DP  RH WIND       PRES   REMARKS
NEWARK/LIBERTY PTSUNNY   61  21  21 W17       29.72F
TETERBORO      SUNNY     59  25  27 NW3       29.71F
CALDWELL       SUNNY     58  22  24 MISG      29.72F
MORRISTOWN     MOSUNNY   59  23  25 N6        29.73F
SOMERVILLE     SUNNY     59  25  27 VRB5      29.72F
SUSSEX         SUNNY     58  25  28 NW7       29.73F
ANDOVER          N/A     57  22  25 MISG      29.72F
TRENTON        SUNNY     56  24  29 NW10      29.75F
MILLVILLE      SUNNY     55  26  32 W13G20    29.80F
ATLANTIC CITY  MOSUNNY   55  22  27 W7        29.78F
WRIGHTSTOWN    MOSUNNY   55  24  29 W10       29.74F
TOMS RIVER     MOSUNNY   57  23  26 W9        29.76F
BELMAR         SUNNY     57  25  28 W10G16    29.75F
$$

PAZ047>061-062-071-252100-
EASTERN PENNSYLVANIA

CITY           SKY/WX    TMP DP  RH WIND       PRES   REMARKS
PHILADELPHIA   PTSUNNY   57  23  26 SW12G20   29.78F
ALLENTOWN      MOSUNNY   57  25  29 SW5       29.75F
SCRANTON       SUNNY     54  24  31 NW12G17   29.74F
$$

CTZ002-004>006-009-010-012-RIZ004-006-007-MAZ004-011-015-252100-
SOUTHERN NEW ENGLAND
 IN CT

CITY           SKY/WX    TMP DP  RH WIND       PRES   REMARKS
BRADLEY INTL   MOSUNNY   59  24  26 NW12G20   29.68F
HARTFORD       SUNNY     57  25  29 W12G21    29.69F
DANBURY        SUNNY     55  23  28 VRB5      29.72F
WTRBRY/OXFORD  SUNNY     54  27  35 N12G23    29.71F
BRIDGEPORT     SUNNY     55  31  39 S13G23    29.71F
MERIDEN        MOSUNNY   58  23  26 NW10      29.69F
NEW HAVEN      MOSUNNY   53  32  44 SW12      29.70F
CHESTER        FAIR      55  23  28 NW10G20   29.69F
GROTON         SUNNY     50  32  50 SW20      29.68F
WILLIMANTIC    SUNNY     57  24  28 NW12G17   29.68F

 IN RI

CITY           SKY/WX    TMP DP  RH WIND       PRES   REMARKS
PROVIDENCE     MOSUNNY   60  25  26 NW10      29.67F
BLOCK ISLAND   SUNNY     48  34  57 SW17      29.70F
WESTERLY       SUNNY     51  29  42 SW14G23   29.69F

 IN MA

CITY           SKY/WX    TMP DP  RH WIND       PRES   REMARKS
BOSTON         PTSUNNY   54  25  32 NW12G23   29.68S
WORCESTER      PTSUNNY   52  24  33 W10G23    29.67F
WESTFIELD      SUNNY     57  24  28 NW17G24   29.68F
PROVINCETOWN   CLOUDY   N/A N/A N/A CALM      29.70S
NANTUCKET      PTSUNNY   47  32  56 W17       29.72S
$$

ANZ330-335-338-340-345-350-353-355-252100-
COASTAL MARINE OBSERVATIONS


STATION/POSITION TIME  SKY/WX   TEMP    WIND        PRES    VSBY  WAVE
                                AIR SEA DIR/SP/G                  HT/PER
                 (UTC)          (F)     (DEG/KT/KT) (MB)    (MI)  (FT/S)
NY HARB ENTRANCE 1950            46 46  180/ 10/ 12 1007.2          1/11
4S FIRE IS       1903               44                N/A           2/ 4
20S FIRE ISLAND  1950            44 43  220/ 12/ 14 1007.8          2/ 4
23SW MTP         NOT AVBL
HUDSON CANYON    NOT AVBL
EXECUTION ROCKS  NOT AVBL
WESTERN LI SOUND NOT AVBL
CENTRAL LI SOUND NOT AVBL
EASTERN LI SOUND 1900            45     240/ 17/ 23   N/A
ROBBINS REEF     1900            54     270/  5/ 12 1006.5
$$


>>>>>>>>>>>>>>>>>>>>>>>>>>>> KEY <<<<<<<<<<<<<<<<<<<<<<<<<<<
>                                                          <
>     SKY/WX - SKY CONDITION/PRESENT WEATHER               <
>     TMP    - TEMPERATURE IN FAHRENHEIT                   <
>     DP     - DEWPOINT IN FAHRENHEIT                      <
>     RH     - RELATIVE HUMIDITY IN PERCENT                <
>     WIND   - DIRECTION AND SPEED IN MPH                  <
>     PRES   - MEAN SEA LEVEL PRESSURE IN INCHES OF HG     <
>     WCI    - WIND CHILL INDEX                            <
>     VSB    - VISIBILITY IN MILES                         <
>     HX     - HEAT INDEX                                  <
>     TC     - TEMPERATURE IN CELSIUS                      <
>     VRB    - VARIABLE WIND DIRECTION                     <
>                                                          <
>>>>>>>>>>>>>>>>>>>>>>>>>>>> KEY <<<<<<<<<<<<<<<<<<<<<<<<<<<




USA.gov is the U.S. government's official web portal to all federal, state and local government web resources and services.